Billings, MT

2:29 AM MST on November 13, 2019 (GMT -0700)
Billings Logan International

Weather History for KBIL - October, 2019

Change the Weather History Date:

Wednesday, October 23, 2019

  Actual Average Record
Temperature  
Mean Temperature 40 °F 46 °F  
Max Temperature 46 °F 57 °F 80 °F (1939)
Min Temperature 33 °F 35 °F 19 °F (2002)
Degree Days  
Heating Degree Days 25 19  
Month to date heating degree days 475 354  
Since 1 July heating degree days 657 578  
Cooling Degree Days 0 0  
Month to date cooling degree days 0 0  
Year to date cooling degree days 823 633  
Moisture  
Dew Point 26 °F    
Average Humidity 57    
Maximum Humidity 76    
Minimum Humidity 38    
Precipitation  
Precipitation 0.00 in 0.03 in 0.58 in (1972)
Month to date precipitation 0.47 0.95  
Year to date precipitation 17.63 12.30  
Snow  
Snow 0.00 in 0.10 in 3.00 in (1954)
Month to date snowfall 6.2 2.9  
Since 1 July snowfall 6.3 4.0  
Since 1 September snowfall 6.3 4.0  
Snow Depth 0.00 in    
Sea Level Pressure  
Sea Level Pressure 30.27 in    
Wind  
Wind Speed 14 mph ()    
Max Wind Speed 30 mph    
Max Gust Speed 37 mph    
Visibility 10.0 miles    
Events      
T = Trace of Precipitation, MM = Missing Value Source: Averaged Metar Reports

Daily Weather History Graph

Daily Weather History Graph

Search for Another Location

Airport or City:

Astronomy

Oct. 23, 2019 Rise Set
Actual Time 7:41 AM MDT 6:14 PM MDT
Civil Twilight 7:11 AM MDT 6:45 PM MDT
Nautical Twilight 6:36 AM MDT 7:19 PM MDT
Astronomical Twilight 6:01 AM MDT 7:54 PM MDT
Moon 1:40 AM MDT (10/23) 4:27 PM MDT (10/23)
Length of Visible Light 11h 34m
Length of Day
10h 33m
Waning Crescent, 26% of the Moon is Illuminated
Oct 23
Waning Crescent
Oct 27
New
Nov 4
First Quarter
Nov 12
Full
Nov 19
Last Quarter

Hourly Weather History & Observations

Time (MDT) Temp. Windchill Dew Point Humidity Pressure Visibility Wind Dir Wind Speed Gust Speed Precip Events Conditions
12:53 AM 42.1 °F 33.9 °F 32.0 °F 67% 30.01 in 10.0 mi West 17.3 mph - N/A   Mostly Cloudy
1:53 AM 43.0 °F 36.4 °F 30.9 °F 62% 30.01 in 10.0 mi West 12.7 mph - N/A   Mostly Cloudy
2:53 AM 43.0 °F 36.0 °F 30.0 °F 60% 30.01 in 10.0 mi WNW 13.8 mph 24.2 mph N/A   Mostly Cloudy
3:53 AM 42.1 °F 37.1 °F 30.0 °F 62% 30.02 in 10.0 mi WNW 8.1 mph - N/A   Mostly Cloudy
4:53 AM 39.9 °F 30.0 °F 30.9 °F 70% 30.05 in 10.0 mi NW 21.9 mph 27.6 mph N/A   Mostly Cloudy
5:53 AM 39.0 °F 29.3 °F 30.0 °F 70% 30.09 in 10.0 mi NW 19.6 mph 27.6 mph N/A   Overcast
6:53 AM 39.0 °F 29.9 °F 30.0 °F 70% 30.14 in 10.0 mi NW 17.3 mph - N/A   Mostly Cloudy
7:53 AM 37.9 °F 27.9 °F 30.0 °F 73% 30.18 in 10.0 mi NNW 19.6 mph 29.9 mph N/A   Overcast
8:53 AM 37.9 °F 28.9 °F 30.0 °F 73% 30.22 in 10.0 mi NNW 16.1 mph - N/A   Overcast
9:53 AM 39.0 °F 30.3 °F 30.0 °F 70% 30.25 in 10.0 mi NNW 16.1 mph - N/A   Overcast
10:53 AM 41.0 °F 33.1 °F 28.9 °F 62% 30.28 in 10.0 mi NNW 15.0 mph - N/A   Mostly Cloudy
11:53 AM 45.0 °F 36.9 °F 27.0 °F 49% 30.30 in 10.0 mi NNW 20.7 mph 27.6 mph N/A   Mostly Cloudy
12:53 PM 46.0 °F 38.5 °F 23.0 °F 40% 30.31 in 10.0 mi NW 19.6 mph 29.9 mph N/A   Mostly Cloudy
1:53 PM 44.1 °F 36.2 °F 23.0 °F 43% 30.32 in 10.0 mi NNW 18.4 mph - N/A   Mostly Cloudy
2:53 PM 44.1 °F 35.4 °F 21.9 °F 42% 30.33 in 10.0 mi NW 21.9 mph - N/A   Mostly Cloudy
3:53 PM 42.1 °F 33.3 °F 23.0 °F 47% 30.36 in 10.0 mi NNW 19.6 mph - N/A   Scattered Clouds
4:53 PM 43.0 °F 35.4 °F 23.0 °F 45% 30.38 in 10.0 mi NNW 16.1 mph - N/A   Scattered Clouds
5:53 PM 39.9 °F 32.5 °F 21.9 °F 49% 30.41 in 10.0 mi NW 12.7 mph - N/A   Scattered Clouds
6:53 PM 37.0 °F 28.5 °F 21.9 °F 54% 30.43 in 10.0 mi NNW 13.8 mph - N/A   Scattered Clouds
7:53 PM 36.0 °F 26.0 °F 21.0 °F 55% 30.45 in 10.0 mi NNW 17.3 mph - N/A   Scattered Clouds
8:53 PM 36.0 °F 27.1 °F 19.9 °F 52% 30.47 in 10.0 mi NW 13.8 mph - N/A   Mostly Cloudy
9:53 PM 36.0 °F 28.0 °F 19.0 °F 50% 30.48 in 10.0 mi NW 11.5 mph - N/A   Overcast
10:53 PM 35.1 °F 26.9 °F 19.0 °F 52% 30.48 in 10.0 mi SW 11.5 mph - N/A   Mostly Cloudy
11:53 PM 34.0 °F 26.6 °F 21.9 °F 61% 30.46 in 10.0 mi WSW 9.2 mph - N/A   Partly Cloudy